TimeCDT,TemperatureF,Dew PointF,Humidity,Sea Level PressureIn,VisibilityMPH,Wind Direction,Wind SpeedMPH,Gust SpeedMPH,PrecipitationIn,Events,Conditions,WindDirDegrees,DateUTC
12:15 AM,44.6,39.2,81,29.89,0.8,Calm,Calm,-,N/A,,Haze,0,2012-10-15 05:15:00
12:35 AM,42.8,39.2,87,29.90,1.2,Calm,Calm,-,N/A,,Mist,0,2012-10-15 05:35:00
12:55 AM,44.6,39.2,81,29.89,4.0,Calm,Calm,-,N/A,,Haze,0,2012-10-15 05:55:00
1:15 AM,44.6,39.2,81,29.90,7.0,West,3.5,-,N/A,,Clear,260,2012-10-15 06:15:00
1:35 AM,44.6,41.0,87,29.90,7.0,Calm,Calm,-,N/A,,Clear,0,2012-10-15 06:35:00
1:55 AM,44.6,41.0,87,29.90,7.0,West,3.5,-,N/A,,Clear,270,2012-10-15 06:55:00
2:15 AM,44.6,41.0,87,29.91,7.0,Calm,Calm,-,N/A,,Clear,0,2012-10-15 07:15:00
2:35 AM,46.4,41.0,81,29.91,10.0,Calm,Calm,-,N/A,,Clear,0,2012-10-15 07:35:00
2:55 AM,46.4,41.0,81,29.91,10.0,Calm,Calm,-,N/A,,Clear,0,2012-10-15 07:55:00
3:15 AM,46.4,41.0,81,29.91,10.0,WNW,3.5,-,N/A,,Clear,300,2012-10-15 08:15:00
3:35 AM,44.6,39.2,81,29.91,10.0,WNW,3.5,-,N/A,,Clear,290,2012-10-15 08:35:00
3:55 AM,44.6,39.2,81,29.91,10.0,Calm,Calm,-,N/A,,Clear,0,2012-10-15 08:55:00
4:15 AM,44.6,39.2,81,29.91,10.0,Calm,Calm,-,N/A,,Clear,0,2012-10-15 09:15:00
4:35 AM,44.6,39.2,81,29.92,10.0,West,4.6,-,N/A,,Clear,280,2012-10-15 09:35:00
4:55 AM,44.6,39.2,81,29.92,10.0,Calm,Calm,-,N/A,,Scattered Clouds,0,2012-10-15 09:55:00
5:15 AM,44.6,39.2,81,29.93,10.0,Calm,Calm,-,N/A,,Clear,0,2012-10-15 10:15:00
5:35 AM,44.6,39.2,81,29.93,10.0,WNW,4.6,-,N/A,,Clear,300,2012-10-15 10:35:00
5:55 AM,44.6,39.2,81,29.94,10.0,WNW,6.9,-,N/A,,Clear,290,2012-10-15 10:55:00
6:15 AM,44.6,37.4,76,29.93,10.0,WNW,5.8,-,N/A,,Clear,290,2012-10-15 11:15:00
6:35 AM,42.8,37.4,81,29.94,10.0,WNW,4.6,-,N/A,,Clear,290,2012-10-15 11:35:00
6:55 AM,42.8,37.4,81,29.94,10.0,West,3.5,-,N/A,,Clear,280,2012-10-15 11:55:00
7:15 AM,42.8,37.4,81,29.94,10.0,West,3.5,-,N/A,,Clear,270,2012-10-15 12:15:00
7:35 AM,42.8,37.4,81,29.95,10.0,West,3.5,-,N/A,,Clear,260,2012-10-15 12:35:00
7:55 AM,44.6,37.4,76,29.96,10.0,NW,4.6,-,N/A,,Clear,310,2012-10-15 12:55:00
8:15 AM,44.6,39.2,81,29.97,10.0,WNW,5.8,-,N/A,,Clear,290,2012-10-15 13:15:00
8:35 AM,46.4,39.2,76,29.97,10.0,Calm,Calm,-,N/A,,Clear,0,2012-10-15 13:35:00
8:55 AM,46.4,39.2,76,29.98,10.0,West,5.8,-,N/A,,Clear,270,2012-10-15 13:55:00
9:15 AM,48.2,39.2,71,29.98,10.0,West,3.5,-,N/A,,Clear,280,2012-10-15 14:15:00
9:35 AM,48.2,41.0,76,29.98,10.0,WNW,6.9,-,N/A,,Clear,290,2012-10-15 14:35:00
9:55 AM,50.0,41.0,71,29.99,10.0,WNW,6.9,-,N/A,,Clear,290,2012-10-15 14:55:00
10:15 AM,51.8,42.8,71,29.99,10.0,WNW,4.6,-,N/A,,Clear,300,2012-10-15 15:15:00
10:35 AM,53.6,42.8,67,29.99,10.0,West,3.5,-,N/A,,Clear,270,2012-10-15 15:35:00
10:55 AM,55.4,42.8,63,29.98,10.0,Calm,Calm,-,N/A,,Clear,0,2012-10-15 15:55:00
11:15 AM,57.2,42.8,59,29.99,10.0,Calm,Calm,-,N/A,,Clear,0,2012-10-15 16:15:00
11:35 AM,57.2,44.6,63,29.99,10.0,NW,3.5,-,N/A,,Clear,320,2012-10-15 16:35:00
11:55 AM,60.8,42.8,52,29.99,10.0,NW,4.6,-,N/A,,Clear,320,2012-10-15 16:55:00
12:15 PM,60.8,42.8,52,29.99,10.0,NW,5.8,-,N/A,,Clear,310,2012-10-15 17:15:00
12:35 PM,60.8,42.8,52,29.99,10.0,NW,4.6,-,N/A,,Clear,310,2012-10-15 17:35:00
12:55 PM,62.6,42.8,48,29.98,10.0,NNW,6.9,-,N/A,,Clear,340,2012-10-15 17:55:00
1:15 PM,62.6,42.8,48,29.98,10.0,WNW,5.8,-,N/A,,Clear,300,2012-10-15 18:15:00
1:35 PM,64.4,41.0,42,29.96,10.0,West,5.8,-,N/A,,Clear,260,2012-10-15 18:35:00
1:55 PM,64.4,39.2,40,29.96,10.0,WNW,5.8,-,N/A,,Clear,300,2012-10-15 18:55:00
2:15 PM,64.4,39.2,40,29.95,10.0,Calm,Calm,-,N/A,,Clear,0,2012-10-15 19:15:00
2:35 PM,64.4,37.4,37,29.95,10.0,West,3.5,-,N/A,,Clear,280,2012-10-15 19:35:00
2:55 PM,64.4,37.4,37,29.95,10.0,WSW,3.5,-,N/A,,Clear,250,2012-10-15 19:55:00
3:15 PM,64.4,37.4,37,29.94,10.0,Calm,Calm,-,N/A,,Clear,0,2012-10-15 20:15:00
3:35 PM,64.4,37.4,37,29.93,10.0,West,3.5,-,N/A,,Clear,270,2012-10-15 20:35:00
3:55 PM,66.2,37.4,35,29.93,10.0,Calm,Calm,-,N/A,,Clear,0,2012-10-15 20:55:00
4:15 PM,66.2,37.4,35,29.93,10.0,WNW,3.5,-,N/A,,Clear,290,2012-10-15 21:15:00
4:35 PM,64.4,35.6,34,29.93,10.0,Calm,Calm,-,N/A,,Clear,0,2012-10-15 21:35:00
4:55 PM,64.4,37.4,37,29.92,10.0,Calm,Calm,-,N/A,,Clear,0,2012-10-15 21:55:00
5:15 PM,64.4,37.4,37,29.92,10.0,Calm,Calm,-,N/A,,Clear,0,2012-10-15 22:15:00
5:35 PM,64.4,41.0,42,29.92,10.0,Calm,Calm,-,N/A,,Clear,0,2012-10-15 22:35:00
5:55 PM,62.6,42.8,48,29.92,10.0,Calm,Calm,-,N/A,,Clear,0,2012-10-15 22:55:00
6:15 PM,60.8,41.0,48,29.92,10.0,Calm,Calm,-,N/A,,Clear,0,2012-10-15 23:15:00
6:35 PM,57.2,44.6,63,29.92,10.0,Calm,Calm,-,N/A,,Clear,0,2012-10-15 23:35:00
6:55 PM,55.4,42.8,63,29.92,10.0,Calm,Calm,-,N/A,,Clear,0,2012-10-15 23:55:00
7:15 PM,53.6,44.6,72,29.92,10.0,Calm,Calm,-,N/A,,Clear,0,2012-10-16 00:15:00
7:35 PM,51.8,42.8,71,29.92,10.0,Calm,Calm,-,N/A,,Clear,0,2012-10-16 00:35:00
7:55 PM,51.8,44.6,76,29.93,10.0,Calm,Calm,-,N/A,,Clear,0,2012-10-16 00:55:00
8:15 PM,51.8,42.8,71,29.92,10.0,Calm,Calm,-,N/A,,Clear,0,2012-10-16 01:15:00
8:35 PM,48.2,42.8,82,29.93,10.0,Calm,Calm,-,N/A,,Clear,0,2012-10-16 01:35:00
8:55 PM,48.2,42.8,82,29.93,10.0,Calm,Calm,-,N/A,,Clear,0,2012-10-16 01:55:00
9:15 PM,48.2,42.8,82,29.93,2.5,Calm,Calm,-,N/A,,Haze,0,2012-10-16 02:15:00
9:35 PM,46.4,41.0,81,29.92,10.0,Calm,Calm,-,N/A,,Clear,0,2012-10-16 02:35:00
9:55 PM,46.4,41.0,81,29.92,10.0,Calm,Calm,-,N/A,,Clear,0,2012-10-16 02:55:00
10:15 PM,46.4,39.2,76,29.92,10.0,Calm,Calm,-,N/A,,Clear,0,2012-10-16 03:15:00
10:35 PM,44.6,39.2,81,29.92,10.0,Calm,Calm,-,N/A,,Clear,0,2012-10-16 03:35:00
10:55 PM,44.6,39.2,81,29.92,10.0,Calm,Calm,-,N/A,,Clear,0,2012-10-16 03:55:00
11:15 PM,46.4,39.2,76,29.92,10.0,Calm,Calm,-,N/A,,Clear,0,2012-10-16 04:15:00
11:35 PM,44.6,39.2,81,29.92,10.0,Calm,Calm,-,N/A,,Clear,0,2012-10-16 04:35:00
11:55 PM,44.6,39.2,81,29.91,10.0,Calm,Calm,-,N/A,,Clear,0,2012-10-16 04:55:00